This is the latest recevied weather packets stored in our database for station/object VK1KCM-5. If no packets are shown the sender has not sent any weather packets the latest 10 day(s).
| Time | Temp. | Humidity | Pressure | Rain* | Wind** | Luminosity | Snow |
|---|---|---|---|---|---|---|---|
| 1787902489 | 11.11° C | 78% | 1025.5 hPa | 0 mm | - | - | - |
| 1787902208 | 11.67° C | 78% | 1025.5 hPa | 0 mm | - | - | - |
| 1787901958 | 11.67° C | 78% | 1025.5 hPa | 0 mm | - | - | - |
| 1787901701 | 11.67° C | 77% | 1025.4 hPa | 0 mm | - | - | - |
| 1787901459 | 11.67° C | 76% | 1025.3 hPa | 0 mm | - | - | - |
| 1787901167 | 12.22° C | 75% | 1025.1 hPa | 0 mm | - | - | - |
| 1787900904 | 12.78° C | 74% | 1024.8 hPa | 0 mm | - | - | - |
| 1787900639 | 12.78° C | 73% | 1025 hPa | 0 mm | - | - | - |
| 1787900363 | 12.78° C | 74% | 1024.7 hPa | 0 mm | - | - | - |
| 1787900109 | 12.78° C | 73% | 1024.5 hPa | 0 mm | - | - | - |
| 1787899854 | 12.78° C | 73% | 1024.5 hPa | 0 mm | - | - | - |
| 1787899614 | 12.78° C | 73% | 1024.5 hPa | 0 mm | - | - | - |
| 1787899333 | 13.33° C | 72% | 1024.2 hPa | 0 mm | - | - | - |
| 1787899069 | 13.33° C | 71% | 1024.7 hPa | 0 mm | - | - | - |
| 1787898769 | 13.33° C | 71% | 1024.5 hPa | 0 mm | - | - | - |
| 1787898517 | 13.89° C | 70% | 1024.5 hPa | 0 mm | - | - | - |
| 1787898269 | 14.44° C | 69% | 1024 hPa | 0 mm | - | - | - |
| 1787898013 | 14.44° C | 68% | 1024.2 hPa | 0 mm | - | - | - |
| 1787897724 | 14.44° C | 68% | 1023.9 hPa | 0 mm | - | - | - |
| 1787897479 | 14.44° C | 68% | 1023.9 hPa | 0 mm | - | - | - |
| 1787897218 | 13.89° C | 69% | 1024 hPa | 0 mm | - | - | - |
| 1787896947 | 14.44° C | 68% | 1023.9 hPa | 0 mm | - | - | - |
| 1787896668 | 15° C | 68% | 1023.8 hPa | 0 mm | - | - | - |
| 1787896384 | 15° C | 65% | 1023.8 hPa | 0 mm | - | - | - |
| 1787896138 | 15° C | 66% | 1023.8 hPa | 0 mm | - | - | - |
* Rain latest hour (hover to see other rain measurements)
** Current wind speed in m/s (hover to see current wind gust speed)